Torna al catalogo

STARLINK-6069

AttivoComunicazioniVLEO
NORAD 56804·PAYLOAD·🇺🇸 United States

Lanciato May 31, 2023 da Vandenberg Space Force Base

Loading…

Prossimi Passaggi (prossime 24 ore)

TLE

AggiornatoSource: CelesTrak SupGP

Epoca: Sep 14, 2026, 21:34 UTC

1 56804C 23078AP  26257.89909722 -.00010113  00000+0 -84722-3 0  2571
2 56804  70.0018 207.3179 0003323 266.3673 215.0575 14.98346404    13

Traccia STARLINK-6069 in tempo reale con AllMySat

Download on the App Store